CW9353 Weather Reports


time (UTC)temp
F
wind
direction
speed
knots
gust
knots
rain 1hr
in
rain 24hr
in
rain mn
in
humidity
%
barometer
mb
20260906191517 73 107 0.0 0.0 0.00 0.00 0.00 59 1008.8
20260906190014 72 106 0.0 0.0 0.00 0.00 0.00 59 1008.9
20260906184512 72 101 0.0 0.0 0.00 0.00 0.00 59 1009.3
20260906183014 72 101 0.0 0.0 0.00 0.00 0.00 59 1009.7
20260906181505 71 100 0.0 0.0 0.00 0.00 0.00 61 1010.1
20260906180002 70 101 0.0 0.0 0.00 0.00 0.00 59 1010.3
20260906174600 70 159 0.0 0.0 0.00 0.00 0.00 61 1010.6
20260906173058 68 164 0.0 0.0 0.00 0.00 0.00 64 1011.0
20260906171552 66 164 0.0 0.0 0.00 0.00 0.00 67 1011.3
20260906170114 66 164 0.0 0.0 0.00 0.00 0.00 68 1011.4
20260906164545 64 164 0.0 0.0 0.00 0.00 0.00 68 1011.5
20260906163046 64 164 0.0 0.0 0.00 0.00 0.00 67 1011.6
20260906161541 63 164 0.0 0.0 0.00 0.00 0.00 66 1012.0
20260906160039 62 164 0.0 0.0 0.00 0.00 0.00 68 1012.1
20260906154537 62 163 0.0 0.0 0.00 0.00 0.00 71 1012.2
20260906153039 61 151 0.0 0.0 0.00 0.00 0.00 72 1012.3
20260906151533 61 145 0.0 0.0 0.00 0.00 0.00 74 1012.2
20260906150029 59 145 0.0 0.0 0.00 0.00 0.00 70 1012.2
20260906144535 57 145 0.0 0.0 0.00 0.00 0.00 70 1012.4
20260906143031 56 145 0.0 0.0 0.00 0.00 0.00 72 1012.3
20260906141535 56 85 0.0 0.0 0.00 0.00 0.00 74 1012.3
20260906140034 55 83 0.0 0.0 0.00 0.00 0.00 76 1012.0
20260906134528 55 83 0.0 0.0 0.00 0.00 0.00 76 1012.0
20260906133024 55 83 0.0 0.0 0.00 0.00 0.00 80 1011.9
20260906131523 54 83 0.0 0.0 0.00 0.00 0.00 81 1011.8
20260906130023 54 83 0.0 0.0 0.00 0.00 0.00 81 1011.8
20260906124536 54 83 0.0 0.0 0.00 0.00 0.00 81 1011.9
20260906123041 54 83 0.0 0.0 0.00 0.00 0.00 80 1011.9
20260906121521 55 83 0.0 0.0 0.00 0.00 0.00 80 1011.9
20260906120021 55 83 0.0 0.0 0.00 0.00 0.00 80 1011.9
20260906114520 56 83 0.0 0.0 0.00 0.00 0.00 78 1011.7
20260906113019 56 83 0.0 0.0 0.00 0.00 0.00 78 1011.9
20260906111526 54 83 0.0 0.0 0.00 0.00 0.00 80 1011.8
20260906110016 54 83 0.0 0.0 0.00 0.00 0.00 77 1012.0
20260906104516 54 83 0.0 0.0 0.00 0.00 0.00 75 1011.9
20260906103017 54 83 0.0 0.0 0.00 0.00 0.00 75 1011.9
20260906101515 54 83 0.0 0.0 0.00 0.00 0.00 74 1011.9
20260906100014 54 83 0.0 0.0 0.00 0.00 0.00 73 1011.8
20260906094511 54 83 0.0 0.0 0.00 0.00 0.00 70 1011.9
20260906093008 55 83 0.0 0.0 0.00 0.00 0.00 68 1012.1
20260906091506 55 83 0.0 0.0 0.00 0.00 0.00 67 1012.2
20260906090009 55 83 0.0 0.0 0.00 0.00 0.00 66 1012.2
20260906084506 56 83 0.0 0.0 0.00 0.00 0.00 65 1012.1
20260906083004 56 83 0.0 0.0 0.00 0.00 0.00 66 1012.2
20260906081508 55 83 0.0 0.0 0.00 0.00 0.00 67 1012.3
20260906080011 55 83 0.0 0.0 0.00 0.00 0.00 66 1012.3
20260906074501 55 83 0.0 0.0 0.00 0.00 0.00 66 1012.4
20260906073059 55 83 0.0 0.0 0.00 0.00 0.00 65 1012.5
20260905231540 78 90 0.0 0.0 0.00 0.00 0.00 31 1009.5
20260905230040 78 90 0.0 0.0 0.00 0.00 0.00 31 1009.6
20260905224548 78 91 0.0 0.0 0.00 0.00 0.00 30 1009.5